sat.trackr.live / text

‹ back to catalog

STARLINK-31411

NORAD 59182 · 2024-045E

PAYLOAD ACTIVE UNKNOWN

§ Identity

Operator
Country
US
Launch date
2024-03-10
Launch site
AFETR
Launch vehicle
Mass (kg)
RCS (m²)

Purposes: comms

External: N2YO · Heavens-Above · Gunter

§ Orbital elements

Epoch: 2026-09-19T22:41:52.854432Z

Period
94.27 min
Inclination
43.0020°
Eccentricity
0.0000873
Mean motion
15.27530607 rev/d
Perigee alt
482.6 km
Apogee alt
483.8 km
Semi-major
6,861.3 km
B*
4.0753e-4
RAAN
75.2049°
Arg perigee
268.9039°
Mean anomaly
91.1713°
Rev number
14,287

§ Raw data

STARLINK-314111 59182U 24045E   26262.94575063  .00010952  00000+0  40753-3 0  99952 59182  43.0020  75.2049 0000873 268.9039  91.1713 15.27530607142878

JSON: /api/v1/satellites/59182 · /tle

For live sub-satellite position, see the globe view (requires WebGL).

§ Visibility from observer

Set your observer location to see the next 7 days of passes ≥ 10°. The values pass through the URL so the page stays shareable.

No JS? Fill the form by hand. The geolocation button needs JavaScript.